Weather History for Sheldon, IA

Change the Weather History Date:

Wednesday, November 21, 2012

  Actual Average Record
Temperature  
Mean Temperature 56 °F -  
Max Temperature 69 °F 39 °F 69 °F (2012)
Min Temperature 42 °F 19 °F -6 °F (1964)
Degree Days  
Heating Degree Days 10    
Growing Degree Days 6 (Base 50)    
Moisture  
Dew Point 39 °F    
Average Humidity 58    
Maximum Humidity 76    
Minimum Humidity 33    
Precipitation  
Precipitation 0.00 in - - ()
Sea Level Pressure  
Sea Level Pressure 29.88 in    
Wind  
Wind Speed 16 mph (South)    
Max Wind Speed 26 mph    
Max Gust Speed 38 mph    
Visibility 10 miles    
Events      
Averages and records for this station are not official NWS values.
T = Trace of Precipitation, MM = Missing Value Source: NWS Daily Summary

Daily Weather History Graph

Daily Weather History Graph

Search for Another Location

Airport:

Trip Planner

Search our weather history database for the weather conditions in past years. The results will help you decide how hot, cold, wet, or windy it might be!

Date:

Astronomy

Nov. 21, 2012 Rise Set
Actual Time 7:24 AM CST 4:53 PM CST
Civil Twilight 6:53 AM CST 5:25 PM CST
Nautical Twilight 6:18 AM CST 6:00 PM CST
Astronomical Twilight 5:44 AM CST 6:33 PM CST
Moon 1:20 PM CST (11/21) 12:34 AM CST (11/21)
Length of Visible Light 10h 31m
Length of Day
9h 29m
First Quarter, 62% of the Moon is Illuminated
Nov 21
First Quarter
Nov 28
Full
Dec 6
Last Quarter
Dec 13
New
Dec 19
First Quarter

Hourly Weather History & Observations

Time (CST) Temp. Windchill Dew Point Humidity Pressure Visibility Wind Dir Wind Speed Gust Speed Precip Events Conditions
12:15 AM 46.4 °F 40.1 °F 33.8 °F 62% 30.02 in 10.0 mi South 15.0 mph - N/A   Clear
12:35 AM 46.4 °F 40.1 °F 33.8 °F 62% 30.01 in 10.0 mi South 15.0 mph - N/A   Clear
12:55 AM 46.4 °F 40.4 °F 35.6 °F 66% 30.01 in 10.0 mi South 13.8 mph - N/A   Clear
1:15 AM 46.4 °F 40.4 °F 35.6 °F 66% 30.01 in 10.0 mi South 13.8 mph - N/A   Clear
1:35 AM 44.6 °F 38.4 °F 35.6 °F 71% 30.00 in 10.0 mi South 12.7 mph - N/A   Clear
1:55 AM 44.6 °F 38.4 °F 35.6 °F 71% 30.00 in 10.0 mi South 12.7 mph - N/A   Clear
2:15 AM 44.6 °F 37.8 °F 35.6 °F 71% 30.00 in 10.0 mi South 15.0 mph - N/A   Clear
2:35 AM 44.6 °F 38.4 °F 35.6 °F 71% 30.01 in 10.0 mi South 12.7 mph - N/A   Clear
2:55 AM 44.6 °F 38.1 °F 35.6 °F 71% 30.00 in 10.0 mi South 13.8 mph - N/A   Clear
3:15 AM 44.6 °F 38.1 °F 35.6 °F 71% 30.00 in 10.0 mi South 13.8 mph - N/A   Clear
3:35 AM 44.6 °F 37.8 °F 35.6 °F 71% 29.99 in 10.0 mi South 15.0 mph - N/A   Clear
3:55 AM 42.8 °F 36.6 °F 35.6 °F 76% 29.98 in 10.0 mi South 11.5 mph - N/A   Clear
4:15 AM 44.6 °F 38.1 °F 35.6 °F 71% 29.98 in 10.0 mi South 13.8 mph - N/A   Clear
4:35 AM 44.6 °F 37.8 °F 35.6 °F 71% 29.98 in 10.0 mi SSW 15.0 mph - N/A   Clear
4:55 AM 44.6 °F 39.2 °F 35.6 °F 71% 29.98 in 10.0 mi SSW 10.4 mph - N/A   Clear
5:15 AM 44.6 °F 38.1 °F 35.6 °F 71% 29.97 in 10.0 mi SSW 13.8 mph 19.6 mph N/A   Clear
5:35 AM 42.8 °F 35.8 °F 35.6 °F 76% 29.97 in 10.0 mi South 13.8 mph - N/A   Clear
5:55 AM 42.8 °F 35.8 °F 35.6 °F 76% 29.97 in 10.0 mi SSW 13.8 mph - N/A   Clear
6:15 AM 42.8 °F 36.2 °F 35.6 °F 76% 29.96 in 10.0 mi SSW 12.7 mph 18.4 mph N/A   Clear
6:35 AM 44.6 °F 38.8 °F 35.6 °F 71% 29.97 in 10.0 mi SSW 11.5 mph - N/A   Clear
6:55 AM 42.8 °F 36.2 °F 35.6 °F 76% 29.96 in 10.0 mi South 12.7 mph - N/A   Clear
7:15 AM 42.8 °F 36.6 °F 35.6 °F 76% 29.97 in 10.0 mi South 11.5 mph 19.6 mph N/A   Clear
7:35 AM 42.8 °F 36.2 °F 35.6 °F 76% 29.96 in 9.0 mi South 12.7 mph - N/A   Clear
7:55 AM 42.8 °F 36.2 °F 35.6 °F 76% 29.96 in 6.0 mi South 12.7 mph - N/A   Haze
8:15 AM 44.6 °F 38.4 °F 35.6 °F 71% 29.96 in 9.0 mi South 12.7 mph 19.6 mph N/A   Clear
8:35 AM 44.6 °F 38.4 °F 37.4 °F 76% 29.96 in 5.0 mi South 12.7 mph 18.4 mph N/A   Haze
8:55 AM 46.4 °F 40.4 °F 37.4 °F 71% 29.96 in 3.0 mi South 13.8 mph - N/A   Haze
9:15 AM 48.2 °F - 37.4 °F 66% 29.95 in 9.0 mi SSW 17.3 mph - N/A   Clear
9:35 AM 50.0 °F - 37.4 °F 62% 29.95 in 10.0 mi SSW 16.1 mph 24.2 mph N/A   Clear
9:55 AM 51.8 °F - 37.4 °F 58% 29.95 in 10.0 mi South 18.4 mph - N/A   Clear
10:15 AM 53.6 °F - 37.4 °F 54% 29.95 in 10.0 mi SSW 17.3 mph 25.3 mph N/A   Clear
10:35 AM 55.4 °F - 37.4 °F 51% 29.95 in 6.0 mi SSW 16.1 mph 21.9 mph N/A   Haze
10:55 AM 57.2 °F - 37.4 °F 48% 29.94 in 5.0 mi SSW 17.3 mph - N/A   Haze
11:15 AM 59.0 °F - 37.4 °F 45% 29.93 in 10.0 mi SSW 18.4 mph 26.5 mph N/A   Clear
11:35 AM 60.8 °F - 37.4 °F 42% 29.91 in 10.0 mi SSW 17.3 mph 24.2 mph N/A   Clear
11:55 AM 62.6 °F - 37.4 °F 39% 29.90 in 10.0 mi SSW 20.7 mph - N/A   Clear
12:15 PM 62.6 °F - 37.4 °F 39% 29.89 in 10.0 mi South 16.1 mph 23.0 mph N/A   Clear
12:35 PM 64.4 °F - 37.4 °F 37% 29.87 in 10.0 mi SSW 21.9 mph 27.6 mph N/A   Clear
12:55 PM 66.2 °F - 37.4 °F 35% 29.86 in 10.0 mi SSW 23.0 mph 32.2 mph N/A   Clear
1:15 PM 66.2 °F - 37.4 °F 35% 29.86 in 10.0 mi SSW 21.9 mph 29.9 mph N/A   Clear
1:35 PM 68.0 °F - 37.4 °F 33% 29.85 in 9.0 mi South 20.7 mph 31.1 mph N/A   Clear
1:55 PM 68.0 °F - 39.2 °F 35% 29.84 in 10.0 mi SSW 23.0 mph 33.4 mph N/A   Clear
2:15 PM 66.2 °F - 41.0 °F 40% 29.83 in 10.0 mi South 26.5 mph - N/A   Clear
2:35 PM 68.0 °F - 41.0 °F 37% 29.82 in 10.0 mi South 23.0 mph 34.5 mph N/A   Clear
2:55 PM 68.0 °F - 42.8 °F 40% 29.81 in 10.0 mi North - - N/A   Clear
3:15 PM 69.8 °F - 41.0 °F 35% 29.80 in 10.0 mi South 25.3 mph 38.0 mph N/A   Clear
3:35 PM 69.8 °F - 41.0 °F 35% 29.80 in 10.0 mi South 23.0 mph 31.1 mph N/A   Clear
3:55 PM 68.0 °F - 41.0 °F 37% 29.80 in 10.0 mi South 19.6 mph 29.9 mph N/A   Clear
4:15 PM 66.2 °F - 42.8 °F 43% 29.80 in 10.0 mi South 16.1 mph 23.0 mph N/A   Clear
4:35 PM 64.4 °F - 42.8 °F 45% 29.80 in 10.0 mi South 15.0 mph 21.9 mph N/A   Clear
4:55 PM 62.6 °F - 42.8 °F 48% 29.80 in 10.0 mi South 15.0 mph - N/A   Clear
5:15 PM 60.8 °F - 42.8 °F 52% 29.79 in 10.0 mi South 17.3 mph - N/A   Clear
5:35 PM 60.8 °F - 42.8 °F 52% 29.78 in 10.0 mi South 18.4 mph - N/A   Clear
5:55 PM 59.0 °F - 42.8 °F 55% 29.78 in 10.0 mi South 16.1 mph 21.9 mph N/A   Clear
6:15 PM 60.8 °F - 42.8 °F 52% 29.78 in 10.0 mi South 20.7 mph - N/A   Clear
6:35 PM 59.0 °F - 42.8 °F 55% 29.77 in 10.0 mi South 18.4 mph 26.5 mph N/A   Clear
6:55 PM 59.0 °F - 42.8 °F 55% 29.77 in 10.0 mi South 17.3 mph - N/A   Clear
7:15 PM 59.0 °F - 42.8 °F 55% 29.77 in 10.0 mi South 16.1 mph - N/A   Clear
7:35 PM 59.0 °F - 42.8 °F 55% 29.76 in 10.0 mi South 18.4 mph - N/A   Clear
7:55 PM 57.2 °F - 42.8 °F 59% 29.76 in 10.0 mi South 16.1 mph 21.9 mph N/A   Clear
8:15 PM 57.2 °F - 41.0 °F 55% 29.75 in 10.0 mi South 16.1 mph - N/A   Clear
8:35 PM 59.0 °F - 41.0 °F 51% 29.74 in 10.0 mi South 20.7 mph 27.6 mph N/A   Clear
8:55 PM 60.8 °F - 41.0 °F 48% 29.74 in 10.0 mi South 21.9 mph 31.1 mph N/A   Clear
9:15 PM 59.0 °F - 41.0 °F 51% 29.73 in 10.0 mi South 23.0 mph 31.1 mph N/A   Clear
9:35 PM 59.0 °F - 42.8 °F 55% 29.73 in 10.0 mi SSW 23.0 mph 32.2 mph N/A   Clear
9:55 PM 59.0 °F - 42.8 °F 55% 29.73 in 10.0 mi SSW 21.9 mph 28.8 mph N/A   Clear
10:15 PM 59.0 °F - 42.8 °F 55% 29.73 in - SSW 24.2 mph 31.1 mph N/A   Clear
10:35 PM 59.0 °F - 42.8 °F 55% 29.72 in 10.0 mi SSW 23.0 mph 33.4 mph N/A   Clear
10:55 PM 57.2 °F - 44.6 °F 63% 29.72 in 10.0 mi SSW 21.9 mph - N/A   Clear
11:15 PM 57.2 °F - 44.6 °F 63% 29.72 in 10.0 mi SSW 18.4 mph 26.5 mph N/A   Clear
11:35 PM 55.4 °F - 44.6 °F 67% 29.71 in 10.0 mi SSW 18.4 mph 25.3 mph N/A   Clear
11:55 PM 55.4 °F - 44.6 °F 67% 29.71 in 10.0 mi SSW 17.3 mph - N/A   Clear